date;Type_Jour;Total
15/03/2019;JOHV;367744
16/03/2019;SA;169075
17/03/2019;DIJFP;111500
18/03/2019;JOHV;367094
19/03/2019;JOHV;376491
20/03/2019;JOHV;371356
21/03/2019;JOHV;379612
22/03/2019;JOHV;375569
23/03/2019;SA;171399
24/03/2019;DIJFP;112644
25/03/2019;JOHV;365825
26/03/2019;JOHV;384052
27/03/2019;JOHV;377022
28/03/2019;JOHV;395826
29/03/2019;JOHV;380092
30/03/2019;SA;173863
31/03/2019;DIJFP;132600
01/04/2019;JOHV;376080
02/04/2019;JOHV;386343
03/04/2019;JOHV;381627
04/04/2019;JOHV;395074
05/04/2019;JOHV;387566
06/04/2019;SA;175531
07/04/2019;DIJFP;113142
08/04/2019;JOHV;379517
09/04/2019;JOHV;390734
10/04/2019;JOHV;387513
11/04/2019;JOHV;397541
12/04/2019;JOHV;388944
13/04/2019;SA;188708
14/04/2019;DIJFP;126337
15/04/2019;JOHV;387132
16/04/2019;JOHV;397576
17/04/2019;JOHV;396192
18/04/2019;JOHV;406388
19/04/2019;JOHV;388461
20/04/2019;SA;165628
21/04/2019;DIJFP;111735
22/04/2019;DIJFP;125643
23/04/2019;JOVS;351923
24/04/2019;JOVS;363003
25/04/2019;JOVS;371463
26/04/2019;JOVS;352985
27/04/2019;SA;157873
28/04/2019;DIJFP;106205
29/04/2019;JOVS;336095
30/04/2019;JOVS;353397
01/05/2019;DIJFP;86744
02/05/2019;JOVS;373929
03/05/2019;JOVS;327690
04/05/2019;SA;152143
05/05/2019;DIJFP;109061
06/05/2019;JOHV;335670
07/05/2019;JOHV;350577
08/05/2019;DIJFP;126503
09/05/2019;JOHV;342344
10/05/2019;JOHV;350296
11/05/2019;SA;173234
12/05/2019;DIJFP;97613
13/05/2019;JOHV;374567
14/05/2019;JOHV;386802
15/05/2019;JOHV;386602
16/05/2019;JOHV;393265
17/05/2019;JOHV;376199
18/05/2019;SA;158764
19/05/2019;DIJFP;104445
20/05/2019;JOHV;375802
21/05/2019;JOHV;390802
22/05/2019;JOHV;386074
23/05/2019;JOHV;395930
24/05/2019;JOHV;378840
25/05/2019;SA;158420
26/05/2019;DIJFP;98936
27/05/2019;JOHV;368946
28/05/2019;JOHV;384730
29/05/2019;JOHV;366922
30/05/2019;DIJFP;145576
31/05/2019;DIJFP;254861
01/06/2019;SA;159665
02/06/2019;DIJFP;107990
03/06/2019;JOHV;379570
04/06/2019;JOHV;394331
05/06/2019;JOHV;398572
06/06/2019;JOHV;420325
07/06/2019;JOHV;411676
08/06/2019;SA;196930
09/06/2019;DIJFP;117681
10/06/2019;DIJFP;170557
11/06/2019;JOHV;419479
12/06/2019;JOHV;419998
13/06/2019;JOHV;413528
14/06/2019;JOHV;421288
15/06/2019;SA;196011
16/06/2019;DIJFP;112325
17/06/2019;JOHV;401424
18/06/2019;JOHV;440639
19/06/2019;JOHV;429351
20/06/2019;JOHV;411670
21/06/2019;JOHV;403496
22/06/2019;SA;195898
23/06/2019;DIJFP;119233
24/06/2019;JOHV;404425
25/06/2019;JOHV;415689
26/06/2019;JOHV;459689
27/06/2019;JOHV;451880
28/06/2019;JOHV;461156
29/06/2019;SA;256765
30/06/2019;DIJFP;152949
01/07/2019;JOHV;415555
02/07/2019;JOHV;435300
03/07/2019;JOHV;461000
04/07/2019;JOHV;435598
05/07/2019;JOHV;411897
06/07/2019;SA;202360
07/07/2019;DIJFP;134782
08/07/2019;JOVS;392341
09/07/2019;JOVS;403119
10/07/2019;JOVS;392085
11/07/2019;JOVS;387683
12/07/2019;JOVS;370092
13/07/2019;SA;180410
14/07/2019;DIJFP;115289
15/07/2019;JOVS;357370
16/07/2019;JOVS;375466
17/07/2019;JOVS;371091
18/07/2019;JOVS;374618
19/07/2019;JOVS;353355
20/07/2019;SA;163769
21/07/2019;DIJFP;117056
22/07/2019;JOVS;357747
23/07/2019;JOVS;372278
24/07/2019;JOVS;364122
25/07/2019;JOVS;359651
26/07/2019;JOVS;333628
27/07/2019;SA;159454
28/07/2019;DIJFP;107911
29/07/2019;JOVS;333874
30/07/2019;JOVS;335126
31/07/2019;JOVS;315825
01/08/2019;JOVS;317497
02/08/2019;JOVS;297472
03/08/2019;SA;147641
04/08/2019;DIJFP;98470
05/08/2019;JOVS;282052
06/08/2019;JOVS;289573
07/08/2019;JOVS;277248
08/08/2019;JOVS;277271
09/08/2019;JOVS;255728
10/08/2019;SA;131439
11/08/2019;DIJFP;85960
12/08/2019;JOVS;234329
13/08/2019;JOVS;232545
14/08/2019;JOVS;226321
15/08/2019;DIJFP;111107
16/08/2019;DIJFP;172871
17/08/2019;SA;121811
18/08/2019;DIJFP;83749
19/08/2019;JOVS;244429
20/08/2019;JOVS;256588
21/08/2019;JOVS;263780
22/08/2019;JOVS;271634
23/08/2019;JOVS;263906
24/08/2019;SA;138427
25/08/2019;DIJFP;91976
26/08/2019;JOVS;304951
27/08/2019;JOVS;320941
28/08/2019;JOVS;320873
29/08/2019;JOVS;330674
30/08/2019;JOVS;318623
31/08/2019;SA;160209
01/09/2019;DIJFP;114129
02/09/2019;JOHV;335844
03/09/2019;JOHV;360977
04/09/2019;JOHV;358151
05/09/2019;JOHV;357848
06/09/2019;JOHV;352108
07/09/2019;SA;173989
08/09/2019;DIJFP;111665
09/09/2019;JOHV;359680
10/09/2019;JOHV;368548
11/09/2019;JOHV;370366
12/09/2019;JOHV;375359
13/09/2019;JOHV;208292
14/09/2019;SA;177956
15/09/2019;DIJFP;111521
16/09/2019;JOHV;370431
17/09/2019;JOHV;383915
18/09/2019;JOHV;374340
19/09/2019;JOHV;364253
20/09/2019;JOHV;349207
21/09/2019;SA;176359
22/09/2019;DIJFP;110113
23/09/2019;JOHV;345439
24/09/2019;JOHV;364188
25/09/2019;JOHV;379587
26/09/2019;JOHV;393173
27/09/2019;JOHV;380853
28/09/2019;SA;192015
29/09/2019;DIJFP;117810
30/09/2019;JOHV;370672
01/10/2019;JOHV;384948
02/10/2019;JOHV;371126
03/10/2019;JOHV;357598
04/10/2019;JOHV;366310
05/10/2019;SA;185391
06/10/2019;DIJFP;113785
07/10/2019;JOHV;358869
08/10/2019;JOHV;383231
09/10/2019;JOHV;356011
10/10/2019;JOHV;367827
11/10/2019;JOHV;363868
12/10/2019;SA;188207
13/10/2019;DIJFP;117192
14/10/2019;JOHV;367598
15/10/2019;JOHV;367801
16/10/2019;JOHV;364346
17/10/2019;JOHV;366193
18/10/2019;JOHV;355093
19/10/2019;SA;173135
20/10/2019;DIJFP;111184
21/10/2019;JOVS;346123
22/10/2019;JOVS;347645
23/10/2019;JOVS;350265
24/10/2019;JOVS;362426
25/10/2019;JOVS;350996
26/10/2019;SA;194752
27/10/2019;DIJFP;115629
28/10/2019;JOVS;327791
29/10/2019;JOVS;340941
30/10/2019;JOVS;334470
31/10/2019;JOVS;324862
01/11/2019;DIJFP;142055
02/11/2019;SA;159245
03/11/2019;DIJFP;99679
04/11/2019;JOHV;334939
05/11/2019;JOHV;337585
06/11/2019;JOHV;340029
07/11/2019;JOHV;353167
08/11/2019;JOHV;339573
09/11/2019;SA;179833
10/11/2019;DIJFP;125723
11/11/2019;DIJFP;134744
12/11/2019;JOHV;353744
13/11/2019;JOHV;372729
14/11/2019;JOHV;375930
15/11/2019;JOHV;380304
16/11/2019;SA;200753
17/11/2019;DIJFP;131841
18/11/2019;JOHV;382713
19/11/2019;JOHV;388912
20/11/2019;JOHV;381483
21/11/2019;JOHV;390109
22/11/2019;JOHV;394627
23/11/2019;SA;203802
24/11/2019;DIJFP;138985
25/11/2019;JOHV;384546
26/11/2019;JOHV;400851
27/11/2019;JOHV;409934
28/11/2019;JOHV;423429
29/11/2019;JOHV;467210
30/11/2019;SA;267304
01/12/2019;DIJFP;162376
02/12/2019;JOHV;401791
03/12/2019;JOHV;411860
04/12/2019;JOHV;394384
05/12/2019;JOHV;133471
06/12/2019;JOHV;226973
07/12/2019;SA;165357
08/12/2019;DIJFP;100463
09/12/2019;JOHV;276438
10/12/2019;JOHV;278433
11/12/2019;JOHV;304223
12/12/2019;JOHV;326695
13/12/2019;JOHV;313180
14/12/2019;SA;186157
15/12/2019;DIJFP;116656
16/12/2019;JOHV;338758
17/12/2019;JOHV;292021
18/12/2019;JOHV;345048
19/12/2019;JOHV;349018
20/12/2019;JOHV;343467
21/12/2019;SA;205266
22/12/2019;DIJFP;139162
23/12/2019;JOVS;300523
24/12/2019;JOVS;215052
25/12/2019;DIJFP;53594
26/12/2019;JOVS;221522
27/12/2019;JOVS;223233
28/12/2019;SA;166041
29/12/2019;DIJFP;115946
30/12/2019;JOVS;266440
31/12/2019;JOVS;225199
01/01/2020;DIJFP;55763
02/01/2020;JOVS;261424
03/01/2020;JOVS;263235
04/01/2020;SA;156114
05/01/2020;DIJFP;87400
06/01/2020;JOHV;327496
07/01/2020;JOHV;342677
08/01/2020;JOHV;363146
09/01/2020;JOHV;310712
10/01/2020;JOHV;352761
11/01/2020;SA;186085
12/01/2020;DIJFP;120837
13/01/2020;JOHV;365055
14/01/2020;JOHV;373711
15/01/2020;JOHV;369645
16/01/2020;JOHV;336179
17/01/2020;JOHV;366369
18/01/2020;SA;190208
19/01/2020;DIJFP;114336
20/01/2020;JOHV;368728
21/01/2020;JOHV;371360
22/01/2020;JOHV;359965
23/01/2020;JOHV;373424
24/01/2020;JOHV;304588
25/01/2020;SA;186790
26/01/2020;DIJFP;108212
27/01/2020;JOHV;372250
28/01/2020;JOHV;380320
29/01/2020;JOHV;369048
30/01/2020;JOHV;382569
31/01/2020;JOHV;380383
01/02/2020;SA;201545
02/02/2020;DIJFP;117019
03/02/2020;JOHV;378955
04/02/2020;JOHV;388182
05/02/2020;JOHV;367733
06/02/2020;JOHV;370553
07/02/2020;JOHV;362296
08/02/2020;SA;175789
09/02/2020;DIJFP;100659
10/02/2020;JOVS;348464
11/02/2020;JOVS;365426
12/02/2020;JOVS;357213
13/02/2020;JOVS;364667
14/02/2020;JOVS;350075
15/02/2020;SA;156983
16/02/2020;DIJFP;114793
17/02/2020;JOVS;327896
18/02/2020;JOVS;348214
19/02/2020;JOVS;343482
20/02/2020;JOVS;352880
21/02/2020;JOVS;347324
22/02/2020;SA;172352
23/02/2020;DIJFP;99253
24/02/2020;JOHV;364562
25/02/2020;JOHV;379604
26/02/2020;JOHV;364878
27/02/2020;JOHV;379909
28/02/2020;JOHV;365797
29/02/2020;SA;181346
01/03/2020;DIJFP;96974
02/03/2020;JOHV;359546
03/03/2020;JOHV;367711
04/03/2020;JOHV;354445
05/03/2020;JOHV;363690
06/03/2020;JOHV;351223
07/03/2020;SA;154607
08/03/2020;DIJFP;92926
09/03/2020;JOHV;338541
10/03/2020;JOHV;343427
11/03/2020;JOHV;329409
12/03/2020;JOHV;329814
13/03/2020;JOHV;285203
14/03/2020;SA;108153
15/03/2020;DIJFP;34879
16/03/2020;JOHV;92470
17/03/2020;JOHV;30803
18/03/2020;JOHV;16359
19/03/2020;JOHV;14958
20/03/2020;JOHV;14850
21/03/2020;SA;8892
22/03/2020;DIJFP;5550
23/03/2020;JOHV;13917
24/03/2020;JOHV;12786
25/03/2020;JOHV;12059
26/03/2020;JOHV;13431
27/03/2020;JOHV;12406
28/03/2020;SA;8857
29/03/2020;DIJFP;4330
30/03/2020;JOHV;12075
31/03/2020;JOHV;12074
01/04/2020;JOHV;11334
02/04/2020;JOHV;10770
03/04/2020;JOHV;11872
04/04/2020;SA;8943
05/04/2020;DIJFP;4672
06/04/2020;JOVS;12099
07/04/2020;JOVS;11829
08/04/2020;JOVS;12126
09/04/2020;JOVS;11959
10/04/2020;JOVS;12572
11/04/2020;SA;9357
12/04/2020;DIJFP;5052
13/04/2020;DIJFP;6148
14/04/2020;JOVS;14003
15/04/2020;JOVS;13384
16/04/2020;JOVS;13132
17/04/2020;JOVS;13591
18/04/2020;SA;9830
19/04/2020;DIJFP;4809
20/04/2020;JOHV;9816
21/04/2020;JOHV;13987
22/04/2020;JOHV;14238
23/04/2020;JOHV;14844
24/04/2020;JOHV;14144
25/04/2020;SA;10159
26/04/2020;DIJFP;4723
27/04/2020;JOHV;15176
28/04/2020;JOHV;15632
29/04/2020;JOHV;15662
30/04/2020;JOHV;16684
01/05/2020;DIJFP;5804
02/05/2020;SA;12589
03/05/2020;DIJFP;4903
04/05/2020;JOHV;19309
05/05/2020;JOHV;18803
06/05/2020;JOHV;19941
07/05/2020;JOHV;21444
08/05/2020;DIJFP;8410
09/05/2020;SA;14137
10/05/2020;DIJFP;6166
11/05/2020;JOHV;39139
12/05/2020;JOHV;39872
13/05/2020;JOHV;39746
14/05/2020;JOHV;45032
15/05/2020;JOHV;41559
16/05/2020;SA;35452
17/05/2020;DIJFP;17983
18/05/2020;JOHV;45711
19/05/2020;JOHV;47604
20/05/2020;JOHV;48821
21/05/2020;DIJFP;26290
22/05/2020;DIJFP;45115
23/05/2020;SA;37487
24/05/2020;DIJFP;23821
25/05/2020;JOHV;52671
26/05/2020;JOHV;50078
27/05/2020;JOHV;52354
28/05/2020;JOHV;57370
29/05/2020;JOHV;56836
30/05/2020;SA;48590
31/05/2020;DIJFP;25639
01/06/2020;DIJFP;41158
02/06/2020;JOHV;74858
03/06/2020;JOHV;74409
04/06/2020;JOHV;81212
05/06/2020;JOHV;92343
06/06/2020;SA;91533
07/06/2020;DIJFP;45503
08/06/2020;JOHV;106514
09/06/2020;JOHV;113105
10/06/2020;JOHV;116149
11/06/2020;JOHV;116989
12/06/2020;JOHV;110008
13/06/2020;SA;95292
14/06/2020;DIJFP;50820
15/06/2020;JOHV;123663
16/06/2020;JOHV;134617
17/06/2020;JOHV;136574
18/06/2020;JOHV;140773
19/06/2020;JOHV;133990
20/06/2020;SA;104347
21/06/2020;DIJFP;56347
22/06/2020;JOHV;151052
23/06/2020;JOHV;168308
24/06/2020;JOHV;166210
25/06/2020;JOHV;166219
26/06/2020;JOHV;151747
27/06/2020;SA;112170
28/06/2020;DIJFP;64604
29/06/2020;JOHV;169570
30/06/2020;JOHV;148972
01/07/2020;JOHV;184579
02/07/2020;JOHV;192051
03/07/2020;JOHV;173181
04/07/2020;SA;114446
05/07/2020;DIJFP;66574
06/07/2020;JOVS;188855
07/07/2020;JOVS;207970
08/07/2020;JOVS;202519
09/07/2020;JOVS;205552
10/07/2020;JOVS;178404
11/07/2020;SA;108089
12/07/2020;DIJFP;64931
13/07/2020;DIJFP;139519
14/07/2020;DIJFP;73541
15/07/2020;JOVS;210883
16/07/2020;JOVS;216889
17/07/2020;JOVS;196238
18/07/2020;SA;119719
19/07/2020;DIJFP;71192
20/07/2020;JOVS;198046
21/07/2020;JOVS;214776
22/07/2020;JOVS;209804
23/07/2020;JOVS;208619
24/07/2020;JOVS;180970
25/07/2020;SA;114047
26/07/2020;DIJFP;69216
27/07/2020;JOVS;190491
28/07/2020;JOVS;159097
29/07/2020;JOVS;180031
30/07/2020;JOVS;191111
31/07/2020;JOVS;151011
01/08/2020;SA;99249
02/08/2020;DIJFP;63962
03/08/2020;JOVS;162490
04/08/2020;JOVS;172086
05/08/2020;JOVS;171407
06/08/2020;JOVS;168334
07/08/2020;JOVS;148337
08/08/2020;SA;97658
09/08/2020;DIJFP;62856
10/08/2020;JOVS;147440
11/08/2020;JOVS;148620
12/08/2020;JOVS;142711
13/08/2020;JOVS;139931
14/08/2020;JOVS;127199
15/08/2020;DIJFP;79285
16/08/2020;DIJFP;51226
17/08/2020;JOVS;139029
18/08/2020;JOVS;146589
19/08/2020;JOVS;142817
20/08/2020;JOVS;147499
21/08/2020;JOVS;133000
22/08/2020;SA;88923
23/08/2020;DIJFP;53569
24/08/2020;JOVS;158372
25/08/2020;JOVS;175234
26/08/2020;JOVS;175774
27/08/2020;JOVS;180662
28/08/2020;JOVS;167375
29/08/2020;SA;107148
30/08/2020;DIJFP;66888
31/08/2020;JOVS;204191
01/09/2020;JOHV;206670
02/09/2020;JOHV;214949
03/09/2020;JOHV;218488
04/09/2020;JOHV;202726
05/09/2020;SA;126587
06/09/2020;DIJFP;76613
07/09/2020;JOHV;218583
08/09/2020;JOHV;231927
09/09/2020;JOHV;225097
10/09/2020;JOHV;224857
11/09/2020;JOHV;208882
12/09/2020;SA;122142
13/09/2020;DIJFP;73737
14/09/2020;JOHV;221070
15/09/2020;JOHV;233811
16/09/2020;JOHV;226970
17/09/2020;JOHV;223610
18/09/2020;JOHV;210686
19/09/2020;SA;121215
20/09/2020;DIJFP;73947
21/09/2020;JOHV;214354
22/09/2020;JOHV;234713
23/09/2020;JOHV;231252
24/09/2020;JOHV;229719
25/09/2020;JOHV;208700
26/09/2020;SA;129941
27/09/2020;DIJFP;72355
28/09/2020;JOHV;212021
29/09/2020;JOHV;232703
30/09/2020;JOHV;226964
01/10/2020;JOHV;230910
02/10/2020;JOHV;212424
03/10/2020;SA;130721
04/10/2020;DIJFP;73808
05/10/2020;JOHV;219871
06/10/2020;JOHV;226850
07/10/2020;JOHV;216580
08/10/2020;JOHV;216245
09/10/2020;JOHV;202880
10/10/2020;SA;129391
11/10/2020;DIJFP;71587
12/10/2020;JOHV;204522
13/10/2020;JOHV;216380
14/10/2020;JOHV;208100
15/10/2020;JOHV;207451
16/10/2020;JOHV;191603
17/10/2020;SA;114744
18/10/2020;DIJFP;71191
19/10/2020;JOVS;201336
20/10/2020;JOVS;208890
21/10/2020;JOVS;203855
22/10/2020;JOVS;200927
23/10/2020;JOVS;178143
24/10/2020;SA;112770
25/10/2020;DIJFP;68924
26/10/2020;JOVS;184625
27/10/2020;JOVS;196567
28/10/2020;JOVS;201544
29/10/2020;JOVS;231991
30/10/2020;JOVS;61683
31/10/2020;SA;30865
01/11/2020;DIJFP;16905
02/11/2020;JOHV;66584
03/11/2020;JOHV;62642
04/11/2020;JOHV;60367
05/11/2020;JOHV;59910
06/11/2020;JOHV;55296
07/11/2020;SA;30084
08/11/2020;DIJFP;14014
09/11/2020;JOHV;64512
10/11/2020;JOHV;67458
11/11/2020;DIJFP;21752
12/11/2020;JOHV;66127
13/11/2020;JOHV;62665
14/11/2020;SA;31450
15/11/2020;DIJFP;15076
16/11/2020;JOHV;64885
17/11/2020;JOHV;65666
18/11/2020;JOHV;65947
19/11/2020;JOHV;66475
20/11/2020;JOHV;61689
21/11/2020;SA;33292
22/11/2020;DIJFP;15657
23/11/2020;JOHV;66253
24/11/2020;JOHV;67263
25/11/2020;JOHV;65487
26/11/2020;JOHV;68396
27/11/2020;JOHV;67275
28/11/2020;SA;100178
29/11/2020;DIJFP;54919
30/11/2020;JOHV;99106
01/12/2020;JOHV;103800
02/12/2020;JOHV;106392
03/12/2020;JOHV;110611
04/12/2020;JOHV;129370
05/12/2020;SA;128372
06/12/2020;DIJFP;74253
07/12/2020;JOHV;110938
08/12/2020;JOHV;109414
09/12/2020;JOHV;112331
10/12/2020;JOHV;115842
11/12/2020;JOHV;120559
12/12/2020;SA;120550
13/12/2020;DIJFP;69878
14/12/2020;JOHV;123420
15/12/2020;JOHV;129197
16/12/2020;JOHV;132148
17/12/2020;JOHV;134144
18/12/2020;JOHV;135231
19/12/2020;SA;125750
20/12/2020;DIJFP;82715
21/12/2020;JOVS;145246
22/12/2020;JOVS;151083
23/12/2020;JOVS;146562
24/12/2020;JOVS;111339
25/12/2020;DIJFP;17808
26/12/2020;SA;96945
27/12/2020;DIJFP;50839
28/12/2020;JOVS;114431
29/12/2020;JOVS;111680
30/12/2020;JOVS;115140
31/12/2020;JOVS;96260
01/01/2021;DIJFP;19267
02/01/2021;SA;90202
03/01/2021;DIJFP;51988
04/01/2021;JOHV;111820
05/01/2021;JOHV;115353
06/01/2021;JOHV;118950
07/01/2021;JOHV;119577
08/01/2021;JOHV;116364
09/01/2021;SA;105062
10/01/2021;DIJFP;58457
11/01/2021;JOHV;106980
12/01/2021;JOHV;129228
13/01/2021;JOHV;130363
14/01/2021;JOHV;136043
15/01/2021;JOHV;122934
16/01/2021;SA;95898
17/01/2021;DIJFP;56368
18/01/2021;JOHV;110719
19/01/2021;JOHV;118583
20/01/2021;JOHV;138397
21/01/2021;JOHV;134837
22/01/2021;JOHV;125636
23/01/2021;SA;117359
24/01/2021;DIJFP;66547
25/01/2021;JOHV;117948
26/01/2021;JOHV;118186
27/01/2021;JOHV;125021
28/01/2021;JOHV;133455
29/01/2021;JOHV;130470
30/01/2021;SA;126525
31/01/2021;DIJFP;39647
01/02/2021;JOHV;91695
02/02/2021;JOHV;97956
03/02/2021;JOHV;99247
04/02/2021;JOHV;93796
05/02/2021;JOHV;82012
06/02/2021;SA;45318
07/02/2021;DIJFP;24442
08/02/2021;JOHV;78302
09/02/2021;JOHV;78608
10/02/2021;JOHV;68495
11/02/2021;JOHV;70636
12/02/2021;JOHV;63069
13/02/2021;SA;34770
14/02/2021;DIJFP;21349
15/02/2021;JOVS;70265
16/02/2021;JOVS;82919
17/02/2021;JOVS;82579
18/02/2021;JOVS;81649
19/02/2021;JOVS;71521
20/02/2021;SA;47050
21/02/2021;DIJFP;30188
22/02/2021;JOVS;80929
23/02/2021;JOVS;92022
24/02/2021;JOVS;92866
25/02/2021;JOVS;93390
26/02/2021;JOVS;76067
27/02/2021;SA;43055
28/02/2021;DIJFP;27234
01/03/2021;JOHV;87568
02/03/2021;JOHV;99276
03/03/2021;JOHV;99147
04/03/2021;JOHV;99658
05/03/2021;JOHV;79208
06/03/2021;SA;43932
07/03/2021;DIJFP;27259
08/03/2021;JOHV;83731
09/03/2021;JOHV;94812
10/03/2021;JOHV;92297
11/03/2021;JOHV;97917
12/03/2021;JOHV;81466
13/03/2021;SA;44033
14/03/2021;DIJFP;26925
15/03/2021;JOHV;91035
16/03/2021;JOHV;94556
17/03/2021;JOHV;94683
18/03/2021;JOHV;92112
19/03/2021;JOHV;77262
20/03/2021;SA;28145
21/03/2021;DIJFP;17540
22/03/2021;JOHV;68851
23/03/2021;JOHV;78425
24/03/2021;JOHV;80514
25/03/2021;JOHV;79576
26/03/2021;JOHV;71571
27/03/2021;SA;36420
28/03/2021;DIJFP;23593
29/03/2021;JOHV;80529
30/03/2021;JOHV;89769
31/03/2021;JOHV;74217
01/04/2021;JOHV;70594
02/04/2021;JOHV;56422
03/04/2021;SA;27595
04/04/2021;DIJFP;19506
05/04/2021;DIJFP;16535
06/04/2021;JOHV;52584
07/04/2021;JOHV;62862
08/04/2021;JOHV;64018
09/04/2021;JOHV;61759
10/04/2021;SA;34854
11/04/2021;DIJFP;21385
12/04/2021;JOVS;64310
13/04/2021;JOVS;64525
14/04/2021;JOVS;63020
15/04/2021;JOVS;64104
16/04/2021;JOVS;57899
17/04/2021;SA;34014
18/04/2021;DIJFP;21939
19/04/2021;JOVS;59093
20/04/2021;JOVS;63827
21/04/2021;JOVS;69946
22/04/2021;JOVS;75775
23/04/2021;JOVS;69645
24/04/2021;SA;43126
25/04/2021;DIJFP;27347
26/04/2021;JOHV;78244
27/04/2021;JOHV;86500
28/04/2021;JOHV;84961
29/04/2021;JOHV;80984
30/04/2021;JOHV;76307
01/05/2021;DIJFP;28367
02/05/2021;DIJFP;28775
03/05/2021;JOHV;89745
04/05/2021;JOHV;88200
05/05/2021;JOHV;88210
06/05/2021;JOHV;92364
07/05/2021;JOHV;87938
08/05/2021;DIJFP;40739
09/05/2021;DIJFP;27493
10/05/2021;JOHV;95341
11/05/2021;JOHV;101684
12/05/2021;JOHV;95324
13/05/2021;DIJFP;39578
14/05/2021;DIJFP;63092
15/05/2021;SA;43094
16/05/2021;DIJFP;24741
17/05/2021;JOHV;90513
18/05/2021;JOHV;77397
19/05/2021;JOHV;134002
20/05/2021;JOHV;123273
21/05/2021;JOHV;116758
22/05/2021;SA;107448
23/05/2021;DIJFP;67332
24/05/2021;DIJFP;85868
25/05/2021;JOHV;134813
26/05/2021;JOHV;150793
27/05/2021;JOHV;157162
28/05/2021;JOHV;147428
29/05/2021;SA;105728
30/05/2021;DIJFP;61741
31/05/2021;JOHV;118219
01/06/2021;JOHV;148521
02/06/2021;JOHV;157745
03/06/2021;JOHV;158566
04/06/2021;JOHV;142967
05/06/2021;SA;105324
06/06/2021;DIJFP;63922
07/06/2021;JOHV;125879
08/06/2021;JOHV;139442
09/06/2021;JOHV;147521
10/06/2021;JOHV;155085
11/06/2021;JOHV;161991
12/06/2021;SA;125137
13/06/2021;DIJFP;78229
14/06/2021;JOHV;169732
15/06/2021;JOHV;191009
16/06/2021;JOHV;185854
17/06/2021;JOHV;184731
18/06/2021;JOHV;167124
19/06/2021;SA;121289
20/06/2021;DIJFP;80068
21/06/2021;JOHV;176358
22/06/2021;JOHV;191063
23/06/2021;JOHV;190442
24/06/2021;JOHV;197422
25/06/2021;JOHV;173988
26/06/2021;SA;121820
27/06/2021;DIJFP;74848
28/06/2021;JOHV;180840
29/06/2021;JOHV;204481
30/06/2021;JOHV;235383
01/07/2021;JOHV;228462
02/07/2021;JOHV;194689
03/07/2021;SA;137796
04/07/2021;DIJFP;91089
05/07/2021;JOVS;207938
06/07/2021;JOVS;228408
07/07/2021;JOVS;222497
08/07/2021;JOVS;226003
09/07/2021;JOVS;189475
10/07/2021;SA;128857
11/07/2021;DIJFP;78801
12/07/2021;JOVS;194194
13/07/2021;JOVS;211728
14/07/2021;DIJFP;104498
15/07/2021;JOVS;192000
16/07/2021;JOVS;171091
17/07/2021;SA;117940
18/07/2021;DIJFP;73579
19/07/2021;JOVS;183419
20/07/2021;JOVS;198985
21/07/2021;JOVS;191023
22/07/2021;JOVS;193901
23/07/2021;JOVS;160154
24/07/2021;SA;105464
25/07/2021;DIJFP;66778
26/07/2021;JOVS;168032
27/07/2021;JOVS;189487
28/07/2021;JOVS;176770
29/07/2021;JOVS;173956
30/07/2021;JOVS;148990
31/07/2021;SA;98053
01/08/2021;DIJFP;61692
02/08/2021;JOVS;141141
03/08/2021;JOVS;151644
04/08/2021;JOVS;145558
05/08/2021;JOVS;146911
06/08/2021;JOVS;130086
07/08/2021;SA;92231
08/08/2021;DIJFP;62147
09/08/2021;JOVS;125179
10/08/2021;JOVS;133184
11/08/2021;JOVS;129581
12/08/2021;JOVS;128172
13/08/2021;JOVS;115783
14/08/2021;SA;86516
15/08/2021;DIJFP;53342
16/08/2021;JOVS;118961
17/08/2021;JOVS;133373
18/08/2021;JOVS;129952
19/08/2021;JOVS;131834
20/08/2021;JOVS;118267
21/08/2021;SA;88845
22/08/2021;DIJFP;57165
23/08/2021;JOVS;142973
24/08/2021;JOVS;161940
25/08/2021;JOVS;155156
26/08/2021;JOVS;161309
27/08/2021;JOVS;145220
28/08/2021;SA;105371
29/08/2021;DIJFP;68559
30/08/2021;JOVS;183074
31/08/2021;JOVS;211155
01/09/2021;JOVS;219317
02/09/2021;JOVS;205795
03/09/2021;JOHV;193479
04/09/2021;SA;128344
05/09/2021;DIJFP;83459
06/09/2021;JOHV;217522
07/09/2021;JOHV;239176
08/09/2021;JOHV;228494
09/09/2021;JOHV;230829
10/09/2021;JOHV;207362
11/09/2021;SA;142889
12/09/2021;DIJFP;83348
13/09/2021;JOHV;226401
14/09/2021;JOHV;249282
15/09/2021;JOHV;242793
16/09/2021;JOHV;242246
17/09/2021;JOHV;211604
18/09/2021;SA;137661
19/09/2021;DIJFP;87117
20/09/2021;JOHV;228906
21/09/2021;JOHV;251054
22/09/2021;JOHV;237121
23/09/2021;JOHV;248249
24/09/2021;JOHV;216094
25/09/2021;SA;156510
26/09/2021;DIJFP;90671
27/09/2021;JOHV;234969
28/09/2021;JOHV;256307
29/09/2021;JOHV;249529
30/09/2021;JOHV;257419
01/10/2021;JOHV;226187
02/10/2021;SA;158325
03/10/2021;DIJFP;91377
04/10/2021;JOHV;245653
05/10/2021;JOHV;263362
06/10/2021;JOHV;261348
07/10/2021;JOHV;260274
08/10/2021;JOHV;227654
09/10/2021;SA;161726
10/10/2021;DIJFP;94629
11/10/2021;JOHV;244037
12/10/2021;JOHV;268545
13/10/2021;JOHV;257640
14/10/2021;JOHV;264829
15/10/2021;JOHV;227210
16/10/2021;SA;151964
17/10/2021;DIJFP;96584
18/10/2021;JOHV;242207
19/10/2021;JOHV;268878
20/10/2021;JOHV;258479
21/10/2021;JOHV;260320
22/10/2021;JOHV;227090
23/10/2021;SA;152616
24/10/2021;DIJFP;92731
25/10/2021;JOVS;238263
26/10/2021;JOVS;262213
27/10/2021;JOVS;250712
28/10/2021;JOVS;253272
29/10/2021;JOVS;219377
30/10/2021;SA;154503
31/10/2021;DIJFP;130000
01/11/2021;DIJFP;108295
02/11/2021;JOVS;249449
03/11/2021;JOVS;258109
04/11/2021;JOVS;260341
05/11/2021;JOVS;225527
06/11/2021;SA;151269
07/11/2021;DIJFP;87570
08/11/2021;JOHV;244990
09/11/2021;JOHV;266307
10/11/2021;JOHV;250097
11/11/2021;DIJFP;115422
12/11/2021;DIJFP;165307
13/11/2021;SA;150262
14/11/2021;DIJFP;85196
15/11/2021;JOHV;237737
16/11/2021;JOHV;266956
17/11/2021;JOHV;259266
18/11/2021;JOHV;268168
19/11/2021;JOHV;231838
20/11/2021;SA;155927
21/11/2021;DIJFP;94563
22/11/2021;JOHV;248307
23/11/2021;JOHV;272609
24/11/2021;JOHV;258809
25/11/2021;JOHV;267498
26/11/2021;JOHV;258168
27/11/2021;SA;203256
28/11/2021;DIJFP;129120
29/11/2021;JOHV;244732
30/11/2021;JOHV;268148
01/12/2021;JOHV;260983
02/12/2021;JOHV;261936
03/12/2021;JOHV;235290
04/12/2021;SA;190099
05/12/2021;DIJFP;126508
06/12/2021;JOHV;243415
07/12/2021;JOHV;268009
08/12/2021;JOHV;256285
09/12/2021;JOHV;253440
10/12/2021;JOHV;230566
11/12/2021;SA;192664
12/12/2021;DIJFP;120952
13/12/2021;JOHV;242591
14/12/2021;JOHV;256844
15/12/2021;JOHV;266239
16/12/2021;JOHV;259326
17/12/2021;JOHV;239680
18/12/2021;SA;197580
19/12/2021;DIJFP;137430
20/12/2021;JOVS;257649
21/12/2021;JOVS;263967
22/12/2021;JOVS;238135
23/12/2021;JOVS;225535
24/12/2021;JOVS;154980
25/12/2021;DIJFP;42434